FW0304 Weather Reports


Display with metric or nautical units.
time (UTC)temp
F
wind
direction
speed
MPH
gust
MPH
rain 1hr
in
rain 24hr
in
rain mn
in
humidity
%
barometer
mb
20260510141519 66 109 0.0 2.0 0.00 0.02 0.01 96 1018.4
20260510140024 66 75 0.0 2.0 0.00 0.02 0.01 96 1018.3
20260510134525 66 75 0.0 2.0 0.00 0.02 0.01 96 1018.2
20260510133010 65 75 0.0 2.0 0.00 0.02 0.01 96 1018.1
20260510131524 65 75 0.0 0.0 0.00 0.02 0.01 96 1018.0
20260510130020 65 75 0.0 0.0 0.00 0.02 0.01 96 1017.9
20260510124532 65 75 0.0 0.0 0.00 0.02 0.01 96 1017.7
20260510123027 65 75 0.0 0.0 0.00 0.02 0.01 96 1017.7
20260510121517 64 75 0.0 0.0 0.00 0.02 0.01 96 1017.8
20260510120020 64 75 0.0 0.0 0.00 0.02 0.01 96 1017.3
20260510114522 64 75 0.0 0.0 0.00 0.02 0.01 96 1016.8
20260510113011 64 75 0.0 0.0 0.00 0.02 0.01 96 1016.5
20260510111512 64 75 0.0 0.0 0.00 0.02 0.01 96 1016.3
20260510110023 64 75 0.0 2.0 0.00 0.02 0.01 96 1015.9
20260510104521 63 75 0.0 2.0 0.00 0.02 0.01 96 1015.5
20260510103008 63 75 0.0 2.0 0.00 0.02 0.01 96 1015.4
20260510101512 64 75 0.0 2.0 0.00 0.02 0.01 95 1015.4
20260510093024 64 75 0.0 2.0 0.00 0.02 0.01 95 1014.7
20260510090018 64 75 0.0 2.0 0.00 0.02 0.01 95 1014.6
20260510084520 63 75 0.0 2.0 0.00 0.02 0.01 95 1014.4
20260510083029 63 75 0.0 1.0 0.00 0.02 0.01 95 1014.1
20260510081529 63 75 0.0 2.0 0.00 0.02 0.01 95 1014.0
20260510074519 63 75 0.0 2.0 0.00 0.02 0.01 95 1013.8
20260510073023 63 75 0.0 0.0 0.00 0.02 0.01 95 1013.7
20260510071526 63 75 0.0 2.0 0.00 0.02 0.01 95 1013.9
20260510070035 62 75 0.0 0.0 0.00 0.02 0.01 95 1013.8
20260510064520 62 75 0.0 2.0 0.00 0.02 0.01 94 1013.9
20260510063021 62 75 0.0 0.0 0.01 0.02 0.01 94 1013.9
20260510061525 62 75 0.0 0.0 0.01 0.02 0.01 94 1014.1
20260510060024 62 75 0.0 0.0 0.01 0.02 0.01 94 1014.0
20260510054515 62 75 0.0 2.0 0.01 0.02 0.01 94 1014.1
20260510053020 62 75 0.0 0.0 0.00 0.01 0.00 94 1014.2
20260510051523 63 75 0.0 0.0 0.00 0.01 0.00 94 1014.2
20260510050027 63 75 0.0 0.0 0.00 0.01 0.00 93 1014.3
20260510044532 63 75 0.0 0.0 0.00 0.01 0.01 93 1014.3
20260510043017 63 75 0.0 0.0 0.00 0.01 0.01 93 1014.2
20260510041504 64 75 0.0 0.0 0.00 0.01 0.01 93 1014.3
20260510040010 64 75 0.0 0.0 0.00 0.01 0.01 93 1014.6
20260510034507 64 75 0.0 1.0 0.00 0.02 0.01 93 1014.8
20260510033014 64 75 0.0 2.0 0.00 0.02 0.01 93 1014.8
20260510031520 64 75 0.0 0.0 0.00 0.02 0.01 93 1014.8
20260510030004 64 75 0.0 0.0 0.00 0.02 0.01 93 1014.7
20260510024506 65 75 0.0 2.0 0.00 0.02 0.01 93 1014.6
20260510023011 65 75 0.0 0.0 0.00 0.02 0.01 93 1014.4
20260510021519 65 75 0.0 0.0 0.00 0.02 0.01 92 1014.3
20260510020022 65 75 0.0 0.0 0.00 0.02 0.01 92 1014.1
20260510014508 66 75 0.0 0.0 0.00 0.02 0.01 92 1013.9
20260510013008 66 75 0.0 0.0 0.00 0.02 0.01 91 1013.5
20260510011533 67 75 0.0 0.0 0.00 0.02 0.01 91 1013.0
20260510010019 68 75 0.0 0.0 0.00 0.02 0.01 90 1012.9
20260510004524 68 75 0.0 0.0 0.00 0.02 0.01 90 1012.5
20260510003009 69 75 0.0 0.0 0.00 0.02 0.01 89 1012.4
20260510001512 70 75 0.0 0.0 0.00 0.02 0.01 88 1012.1
20260510000027 70 75 0.0 0.0 0.00 0.02 0.01 86 1012.1
20260509234529 71 75 0.0 0.0 0.00 0.02 0.01 84 1012.0
20260509233012 71 75 0.0 2.0 0.00 0.02 0.01 84 1012.0
20260509231513 71 75 0.0 0.0 0.00 0.02 0.01 83 1011.9
20260509230018 72 75 0.0 0.0 0.00 0.02 0.01 82 1012.2
20260509224523 72 75 0.0 0.0 0.00 0.02 0.01 81 1012.1
20260509223025 72 75 0.0 0.0 0.00 0.02 0.01 78 1012.0
20260509221510 73 75 0.0 2.0 0.00 0.02 0.01 77 1011.8
20260509220015 73 45 0.0 2.0 0.00 0.02 0.01 77 1011.8
20260509214526 73 45 0.0 2.0 0.00 0.02 0.01 76 1011.7
20260509213022 73 67 0.0 2.0 0.00 0.02 0.01 78 1011.6
20260509211525 72 155 0.0 2.0 0.00 0.02 0.01 76 1011.3
20260509210012 73 28 0.0 2.0 0.00 0.02 0.01 76 1011.5
20260509204524 73 304 0.0 2.0 0.00 0.02 0.01 77 1011.3
20260509203022 72 304 0.0 2.0 0.00 0.02 0.01 77 1011.5
20260509201528 72 319 0.0 2.0 0.00 0.02 0.01 78 1011.8
20260509200010 72 346 0.0 2.0 0.00 0.02 0.01 1012.1
20260509194517 73 346 0.0 2.0 0.00 0.02 0.01 76 1012.2
20260509193026 72 352 0.0 2.0 0.00 0.02 0.01 81 1012.1
20260509191510 71 85 0.0 2.0 0.00 0.02 0.01 79 1012.4
20260509190009 71 120 0.0 2.0 0.00 0.02 0.01 80 1012.5
20260509184515 71 138 0.0 2.0 0.01 0.02 0.01 1012.7
20260509183018 70 150 0.0 2.0 0.01 0.02 0.01 79 1012.8
20260509181524 70 15 0.0 2.0 0.01 0.02 0.01 81 1013.0
20260509180013 69 147 0.0 0.0 0.01 0.02 0.01 82 1013.3
20260509174514 69 147 0.0 2.0 0.00 0.01 0.00 83 1013.5
20260509173025 69 160 0.0 2.0 0.00 0.01 0.00 83 1013.6
20260509171523 69 121 0.0 2.0 0.00 0.01 0.00 82 1013.6
20260509170026 68 99 0.0 2.0 0.00 0.01 0.00 85 1013.7
20260509164513 68 111 0.0 3.0 0.00 0.01 0.00 84 1013.7
20260509163016 68 261 0.0 2.0 0.00 0.01 0.00 87 1013.9
20260509161523 67 120 0.0 2.0 0.00 0.01 0.00 87 1013.8
20260509160029 67 36 0.0 2.0 0.00 0.01 0.00 89 1013.8
20260509154512 66 87 0.0 0.0 0.00 0.01 0.00 89 1014.0
20260509153029 66 87 0.0 2.0 0.00 0.01 0.00 88 1013.9
20260509150030 66 187 0.0 2.0 0.00 0.01 0.00 89 1013.6
20260509144530 65 99 0.0 2.0 0.00 0.01 0.00 92 1013.3
20260509143017 64 49 0.0 2.0 0.00 0.01 0.00 93 1013.4